Location: ???????
(56.2167°N, 38.0500°E)
Time: 09:48:07
(UTC+00:00)

Lacrosse 4 Rocket - Pass Details

Date: 19 May 2025
Orbit: 513 x 576 km, 68.0° (Epoch: 12 June)

Event Time Altitude Azimuth Distance (km) Brightness Sun altitude
Rises 18:42:17 0° 247° (WSW) 2,649 5.0 -6.5°
Reaches altitude 10° 18:44:33 10° 256° (WSW) 1,772 4.2 -6.7°
Maximum altitude 18:48:14 36° 325° (NW) 859 3.2 -7.0°
Drops below altitude 10° 18:52:00 10° 33° (NNE) 1,813 4.3 -7.3°
Sets 18:54:22 0° 42° (NE) 2,721 5.0 -7.5°
